Home   Weather   Grevenbroich   Past weeks

Flag for Germany Past Weather in Grevenbroich, North Rhine-Westphalia, Germany — Yesterday and Last 2 Weeks

Now
28 °F

Clear.


Feels Like: 23 °F
Forecast: 22 / 31 °F
Wind: 5 mph from Northeast

Location: Monchengladbach Airport

Current Time: Jan 17, 2017 at 6:22:34 pm

Latest Report: Jan 17, 2017 at 5:50 pm


Visibility: 4 mi

Pressure: 30.66 "Hg

Humidity: 86%

Dew Point: 25 °F

Location of GrevenbroichLocation

Past Weather in Grevenbroich — Graph

°F

Grevenbroich Temperature Yesterday

Maximum temperature yesterday: 36 °F (at 1:20 pm)
Minimum temperature yesterday: 27 °F (at 7:20 pm)
Average temperature yesterday: 32 °F

High & Low Weather Summary for the Past Weeks

 TemperatureHumidityPressure
High46 °F (Jan 11, 1:50 pm)100% (Jan 5, 9:50 am)30.74 "Hg (Jan 5, 9:50 am)
Low21 °F (Jan 6, 8:20 am)56% (Jan 5, 1:20 pm)29.36 "Hg (Jan 12, 8:20 pm)
Average36 °F86%30.15 "Hg
* Reported Jan 2 5:20 pm — Jan 17 5:20 pm, Grevenbroich, Weather by CustomWeather, © 2017

Note: Actual official high and low records may vary slightly from our data, if they occured in-between our weather recording intervals... More about our weather records

Advertising

Grevenbroich Weather History for the Previous 24 Hours

Scroll right to see more
 ConditionsComfort  
Time TempWeatherWind HumidityBarometerVisibility
5:20 pm
Tue, Jan 17
30 °FClear.3 mph80%30.66 "Hg4 mi
4:50 pm30 °FClear.6 mph80%30.63 "Hg4 mi
4:20 pm32 °FClear.8 mph75%30.63 "Hg4 mi
3:50 pm32 °FClear.7 mph75%30.63 "Hg4 mi
3:20 pm32 °FClear.6 mph75%30.63 "Hg4 mi
2:50 pm32 °FPassing clouds.7 mph75%30.63 "Hg4 mi
2:20 pm32 °FClear.8 mph75%30.63 "Hg10 mi
1:50 pm32 °FClear.6 mph69%30.63 "Hg10 mi
1:20 pm30 °FClear.7 mph75%30.66 "Hg10 mi
12:50 pm30 °FPassing clouds.7 mph75%30.66 "HgN/A
12:20 pm30 °FPassing clouds.6 mph75%30.66 "HgN/A
11:50 am30 °FPassing clouds.5 mph69%30.66 "HgN/A
11:20 am28 °FClear.3 mph74%30.66 "Hg10 mi
10:50 am28 °FPassing clouds.5 mph74%30.66 "HgN/A
10:20 am28 °FClear.2 mph74%30.63 "Hg10 mi
9:50 am25 °FClear.2 mph86%30.63 "Hg10 mi
9:20 am21 °FClear.2 mph93%30.63 "Hg10 mi
8:50 am23 °FPassing clouds.No wind86%30.63 "HgN/A
8:20 am23 °FClear.No wind80%30.60 "Hg10 mi
7:50 am25 °FPassing clouds.5 mph86%30.60 "HgN/A
7:50 pm
Mon, Jan 16
27 °FClear.3 mph93%30.42 "Hg10 mi
7:20 pm27 °FClear.5 mph93%30.42 "Hg10 mi
6:50 pm28 °FClear.5 mph86%30.39 "Hg10 mi
6:20 pm28 °FClear.5 mph93%30.39 "Hg5 mi
Weather by CustomWeather, © 2017

See weather overviewHow to use our weather pages